Index of /20260504/WXO-DD/model_gdps/15km/12/033
Name Last modified Size Description
Parent Directory -
20260504T12Z_MSC_GDPS_AbsoluteVorticity_IsbL-0200_LatLon0.15_PT033H.grib2 2026-05-04 16:14 1.2M
20260504T12Z_MSC_GDPS_AbsoluteVorticity_IsbL-0250_LatLon0.15_PT033H.grib2 2026-05-04 16:14 1.3M
20260504T12Z_MSC_GDPS_AbsoluteVorticity_IsbL-0500_LatLon0.15_PT033H.grib2 2026-05-04 16:14 1.5M
20260504T12Z_MSC_GDPS_AbsoluteVorticity_IsbL-0700_LatLon0.15_PT033H.grib2 2026-05-04 16:14 1.3M
20260504T12Z_MSC_GDPS_AbsoluteVorticity_IsbL-0850_LatLon0.15_PT033H.grib2 2026-05-04 16:14 1.6M
20260504T12Z_MSC_GDPS_AirTemp_AGL-120m_LatLon0.15_PT033H.grib2 2026-05-04 16:14 904K
20260504T12Z_MSC_GDPS_AirTemp_AGL-2m_LatLon0.15_PT033H.grib2 2026-05-04 16:14 1.0M
20260504T12Z_MSC_GDPS_AirTemp_AGL-40m_LatLon0.15_PT033H.grib2 2026-05-04 16:14 810K
20260504T12Z_MSC_GDPS_AirTemp_AGL-80m_LatLon0.15_PT033H.grib2 2026-05-04 16:14 914K
20260504T12Z_MSC_GDPS_AirTemp_IsbL-0001_LatLon0.15_PT033H.grib2 2026-05-04 16:14 658K
20260504T12Z_MSC_GDPS_AirTemp_IsbL-0005_LatLon0.15_PT033H.grib2 2026-05-04 16:14 687K
20260504T12Z_MSC_GDPS_AirTemp_IsbL-0010_LatLon0.15_PT033H.grib2 2026-05-04 16:14 703K
20260504T12Z_MSC_GDPS_AirTemp_IsbL-0020_LatLon0.15_PT033H.grib2 2026-05-04 16:14 793K
20260504T12Z_MSC_GDPS_AirTemp_IsbL-0030_LatLon0.15_PT033H.grib2 2026-05-04 16:14 762K
20260504T12Z_MSC_GDPS_AirTemp_IsbL-0050_LatLon0.15_PT033H.grib2 2026-05-04 16:14 813K
20260504T12Z_MSC_GDPS_AirTemp_IsbL-0100_LatLon0.15_PT033H.grib2 2026-05-04 16:14 966K
20260504T12Z_MSC_GDPS_AirTemp_IsbL-0150_LatLon0.15_PT033H.grib2 2026-05-04 16:14 1.0M
20260504T12Z_MSC_GDPS_AirTemp_IsbL-0175_LatLon0.15_PT033H.grib2 2026-05-04 16:14 968K
20260504T12Z_MSC_GDPS_AirTemp_IsbL-0200_LatLon0.15_PT033H.grib2 2026-05-04 16:14 1.0M
20260504T12Z_MSC_GDPS_AirTemp_IsbL-0225_LatLon0.15_PT033H.grib2 2026-05-04 16:14 1.0M
20260504T12Z_MSC_GDPS_AirTemp_IsbL-0250_LatLon0.15_PT033H.grib2 2026-05-04 16:14 1.0M
20260504T12Z_MSC_GDPS_AirTemp_IsbL-0275_LatLon0.15_PT033H.grib2 2026-05-04 16:14 1.0M
20260504T12Z_MSC_GDPS_AirTemp_IsbL-0300_LatLon0.15_PT033H.grib2 2026-05-04 16:14 1.0M
20260504T12Z_MSC_GDPS_AirTemp_IsbL-0350_LatLon0.15_PT033H.grib2 2026-05-04 16:14 934K
20260504T12Z_MSC_GDPS_AirTemp_IsbL-0400_LatLon0.15_PT033H.grib2 2026-05-04 16:14 945K
20260504T12Z_MSC_GDPS_AirTemp_IsbL-0450_LatLon0.15_PT033H.grib2 2026-05-04 16:14 968K
20260504T12Z_MSC_GDPS_AirTemp_IsbL-0500_LatLon0.15_PT033H.grib2 2026-05-04 16:14 1.0M
20260504T12Z_MSC_GDPS_AirTemp_IsbL-0550_LatLon0.15_PT033H.grib2 2026-05-04 16:14 805K
20260504T12Z_MSC_GDPS_AirTemp_IsbL-0600_LatLon0.15_PT033H.grib2 2026-05-04 16:14 892K
20260504T12Z_MSC_GDPS_AirTemp_IsbL-0650_LatLon0.15_PT033H.grib2 2026-05-04 16:14 921K
20260504T12Z_MSC_GDPS_AirTemp_IsbL-0700_LatLon0.15_PT033H.grib2 2026-05-04 16:14 957K
20260504T12Z_MSC_GDPS_AirTemp_IsbL-0750_LatLon0.15_PT033H.grib2 2026-05-04 16:14 1.0M
20260504T12Z_MSC_GDPS_AirTemp_IsbL-0800_LatLon0.15_PT033H.grib2 2026-05-04 16:14 1.1M
20260504T12Z_MSC_GDPS_AirTemp_IsbL-0850_LatLon0.15_PT033H.grib2 2026-05-04 16:14 1.1M
20260504T12Z_MSC_GDPS_AirTemp_IsbL-0875_LatLon0.15_PT033H.grib2 2026-05-04 16:14 1.2M
20260504T12Z_MSC_GDPS_AirTemp_IsbL-0900_LatLon0.15_PT033H.grib2 2026-05-04 16:14 1.1M
20260504T12Z_MSC_GDPS_AirTemp_IsbL-0925_LatLon0.15_PT033H.grib2 2026-05-04 16:14 1.1M
20260504T12Z_MSC_GDPS_AirTemp_IsbL-0950_LatLon0.15_PT033H.grib2 2026-05-04 16:14 1.1M
20260504T12Z_MSC_GDPS_AirTemp_IsbL-0970_LatLon0.15_PT033H.grib2 2026-05-04 16:14 1.1M
20260504T12Z_MSC_GDPS_AirTemp_IsbL-0985_LatLon0.15_PT033H.grib2 2026-05-04 16:14 1.1M
20260504T12Z_MSC_GDPS_AirTemp_IsbL-1000_LatLon0.15_PT033H.grib2 2026-05-04 16:14 1.1M
20260504T12Z_MSC_GDPS_AirTemp_IsbL-1015_LatLon0.15_PT033H.grib2 2026-05-04 16:14 1.1M
20260504T12Z_MSC_GDPS_Albedo_Sfc_LatLon0.15_PT033H.grib2 2026-05-04 16:14 243K
20260504T12Z_MSC_GDPS_CAPE_Sfc_LatLon0.15_PT033H.grib2 2026-05-04 16:14 3.8M
20260504T12Z_MSC_GDPS_CIN_Sfc_LatLon0.15_PT033H.grib2 2026-05-04 16:14 2.8M
20260504T12Z_MSC_GDPS_CloudWater_EAtm_LatLon0.15_PT033H.grib2 2026-05-04 16:14 532K
20260504T12Z_MSC_GDPS_ConvectivePrecip-Accum_Sfc_LatLon0.15_PT033H.grib2 2026-05-04 16:14 2.6M
20260504T12Z_MSC_GDPS_DewPointDepression_AGL-2m_LatLon0.15_PT033H.grib2 2026-05-04 16:14 599K
20260504T12Z_MSC_GDPS_DewPointDepression_IsbL-0010_LatLon0.15_PT033H.grib2 2026-05-04 16:14 78K
20260504T12Z_MSC_GDPS_DewPointDepression_IsbL-0020_LatLon0.15_PT033H.grib2 2026-05-04 16:14 74K
20260504T12Z_MSC_GDPS_DewPointDepression_IsbL-0030_LatLon0.15_PT033H.grib2 2026-05-04 16:14 87K
20260504T12Z_MSC_GDPS_DewPointDepression_IsbL-0050_LatLon0.15_PT033H.grib2 2026-05-04 16:14 382K
20260504T12Z_MSC_GDPS_DewPointDepression_IsbL-0100_LatLon0.15_PT033H.grib2 2026-05-04 16:14 408K
20260504T12Z_MSC_GDPS_DewPointDepression_IsbL-0150_LatLon0.15_PT033H.grib2 2026-05-04 16:14 485K
20260504T12Z_MSC_GDPS_DewPointDepression_IsbL-0175_LatLon0.15_PT033H.grib2 2026-05-04 16:14 600K
20260504T12Z_MSC_GDPS_DewPointDepression_IsbL-0200_LatLon0.15_PT033H.grib2 2026-05-04 16:14 699K
20260504T12Z_MSC_GDPS_DewPointDepression_IsbL-0225_LatLon0.15_PT033H.grib2 2026-05-04 16:14 785K
20260504T12Z_MSC_GDPS_DewPointDepression_IsbL-0250_LatLon0.15_PT033H.grib2 2026-05-04 16:14 874K
20260504T12Z_MSC_GDPS_DewPointDepression_IsbL-0275_LatLon0.15_PT033H.grib2 2026-05-04 16:14 893K
20260504T12Z_MSC_GDPS_DewPointDepression_IsbL-0300_LatLon0.15_PT033H.grib2 2026-05-04 16:14 939K
20260504T12Z_MSC_GDPS_DewPointDepression_IsbL-0350_LatLon0.15_PT033H.grib2 2026-05-04 16:14 962K
20260504T12Z_MSC_GDPS_DewPointDepression_IsbL-0400_LatLon0.15_PT033H.grib2 2026-05-04 16:14 1.0M
20260504T12Z_MSC_GDPS_DewPointDepression_IsbL-0450_LatLon0.15_PT033H.grib2 2026-05-04 16:14 1.0M
20260504T12Z_MSC_GDPS_DewPointDepression_IsbL-0500_LatLon0.15_PT033H.grib2 2026-05-04 16:14 1.0M
20260504T12Z_MSC_GDPS_DewPointDepression_IsbL-0550_LatLon0.15_PT033H.grib2 2026-05-04 16:14 1.0M
20260504T12Z_MSC_GDPS_DewPointDepression_IsbL-0600_LatLon0.15_PT033H.grib2 2026-05-04 16:14 1.0M
20260504T12Z_MSC_GDPS_DewPointDepression_IsbL-0650_LatLon0.15_PT033H.grib2 2026-05-04 16:14 1.0M
20260504T12Z_MSC_GDPS_DewPointDepression_IsbL-0700_LatLon0.15_PT033H.grib2 2026-05-04 16:14 1.1M
20260504T12Z_MSC_GDPS_DewPointDepression_IsbL-0750_LatLon0.15_PT033H.grib2 2026-05-04 16:14 1.1M
20260504T12Z_MSC_GDPS_DewPointDepression_IsbL-0800_LatLon0.15_PT033H.grib2 2026-05-04 16:14 1.1M
20260504T12Z_MSC_GDPS_DewPointDepression_IsbL-0850_LatLon0.15_PT033H.grib2 2026-05-04 16:14 1.1M
20260504T12Z_MSC_GDPS_DewPointDepression_IsbL-0875_LatLon0.15_PT033H.grib2 2026-05-04 16:14 1.1M
20260504T12Z_MSC_GDPS_DewPointDepression_IsbL-0900_LatLon0.15_PT033H.grib2 2026-05-04 16:14 1.0M
20260504T12Z_MSC_GDPS_DewPointDepression_IsbL-0925_LatLon0.15_PT033H.grib2 2026-05-04 16:14 1.0M
20260504T12Z_MSC_GDPS_DewPointDepression_IsbL-0950_LatLon0.15_PT033H.grib2 2026-05-04 16:14 1.0M
20260504T12Z_MSC_GDPS_DewPointDepression_IsbL-0970_LatLon0.15_PT033H.grib2 2026-05-04 16:14 1.0M
20260504T12Z_MSC_GDPS_DewPointDepression_IsbL-0985_LatLon0.15_PT033H.grib2 2026-05-04 16:14 1.0M
20260504T12Z_MSC_GDPS_DewPointDepression_IsbL-1000_LatLon0.15_PT033H.grib2 2026-05-04 16:14 1.0M
20260504T12Z_MSC_GDPS_DewPointDepression_IsbL-1015_LatLon0.15_PT033H.grib2 2026-05-04 16:14 920K
20260504T12Z_MSC_GDPS_DewPoint_AGL-2m_LatLon0.15_PT033H.grib2 2026-05-04 16:14 601K
20260504T12Z_MSC_GDPS_DownwardLongwaveRadiationFlux-Accum_Sfc_LatLon0.15_PT033H.grib2 2026-05-04 16:14 775K
20260504T12Z_MSC_GDPS_DownwardShortwaveRadiationFlux-Accum_NTAtm_LatLon0.15_PT033H.grib2 2026-05-04 16:14 282K
20260504T12Z_MSC_GDPS_DownwardShortwaveRadiationFlux-Accum_Sfc_LatLon0.15_PT033H.grib2 2026-05-04 16:14 923K
20260504T12Z_MSC_GDPS_FreezingRain-Accum1h_Sfc_LatLon0.15_PT033H.grib2 2026-05-04 16:14 37K
20260504T12Z_MSC_GDPS_FreezingRain-Accum3h_Sfc_LatLon0.15_PT033H.grib2 2026-05-04 16:14 48K
20260504T12Z_MSC_GDPS_FreezingRain-Accum_Sfc_LatLon0.15_PT033H.grib2 2026-05-04 16:14 190K
20260504T12Z_MSC_GDPS_GeopotentialHeight_IsbL-0001_LatLon0.15_PT033H.grib2 2026-05-04 16:14 428K
20260504T12Z_MSC_GDPS_GeopotentialHeight_IsbL-0005_LatLon0.15_PT033H.grib2 2026-05-04 16:14 487K
20260504T12Z_MSC_GDPS_GeopotentialHeight_IsbL-0010_LatLon0.15_PT033H.grib2 2026-05-04 16:14 478K
20260504T12Z_MSC_GDPS_GeopotentialHeight_IsbL-0020_LatLon0.15_PT033H.grib2 2026-05-04 16:14 418K
20260504T12Z_MSC_GDPS_GeopotentialHeight_IsbL-0030_LatLon0.15_PT033H.grib2 2026-05-04 16:14 573K
20260504T12Z_MSC_GDPS_GeopotentialHeight_IsbL-0050_LatLon0.15_PT033H.grib2 2026-05-04 16:14 572K
20260504T12Z_MSC_GDPS_GeopotentialHeight_IsbL-0100_LatLon0.15_PT033H.grib2 2026-05-04 16:14 611K
20260504T12Z_MSC_GDPS_GeopotentialHeight_IsbL-0150_LatLon0.15_PT033H.grib2 2026-05-04 16:14 628K
20260504T12Z_MSC_GDPS_GeopotentialHeight_IsbL-0175_LatLon0.15_PT033H.grib2 2026-05-04 16:14 633K
20260504T12Z_MSC_GDPS_GeopotentialHeight_IsbL-0200_LatLon0.15_PT033H.grib2 2026-05-04 16:14 640K
20260504T12Z_MSC_GDPS_GeopotentialHeight_IsbL-0225_LatLon0.15_PT033H.grib2 2026-05-04 16:14 638K
20260504T12Z_MSC_GDPS_GeopotentialHeight_IsbL-0250_LatLon0.15_PT033H.grib2 2026-05-04 16:14 644K
20260504T12Z_MSC_GDPS_GeopotentialHeight_IsbL-0275_LatLon0.15_PT033H.grib2 2026-05-04 16:14 645K
20260504T12Z_MSC_GDPS_GeopotentialHeight_IsbL-0300_LatLon0.15_PT033H.grib2 2026-05-04 16:14 644K
20260504T12Z_MSC_GDPS_GeopotentialHeight_IsbL-0350_LatLon0.15_PT033H.grib2 2026-05-04 16:14 633K
20260504T12Z_MSC_GDPS_GeopotentialHeight_IsbL-0400_LatLon0.15_PT033H.grib2 2026-05-04 16:14 623K
20260504T12Z_MSC_GDPS_GeopotentialHeight_IsbL-0450_LatLon0.15_PT033H.grib2 2026-05-04 16:14 546K
20260504T12Z_MSC_GDPS_GeopotentialHeight_IsbL-0500_LatLon0.15_PT033H.grib2 2026-05-04 16:14 537K
20260504T12Z_MSC_GDPS_GeopotentialHeight_IsbL-0550_LatLon0.15_PT033H.grib2 2026-05-04 16:14 532K
20260504T12Z_MSC_GDPS_GeopotentialHeight_IsbL-0600_LatLon0.15_PT033H.grib2 2026-05-04 16:14 694K
20260504T12Z_MSC_GDPS_GeopotentialHeight_IsbL-0650_LatLon0.15_PT033H.grib2 2026-05-04 16:14 695K
20260504T12Z_MSC_GDPS_GeopotentialHeight_IsbL-0700_LatLon0.15_PT033H.grib2 2026-05-04 16:14 697K
20260504T12Z_MSC_GDPS_GeopotentialHeight_IsbL-0750_LatLon0.15_PT033H.grib2 2026-05-04 16:14 702K
20260504T12Z_MSC_GDPS_GeopotentialHeight_IsbL-0800_LatLon0.15_PT033H.grib2 2026-05-04 16:14 711K
20260504T12Z_MSC_GDPS_GeopotentialHeight_IsbL-0850_LatLon0.15_PT033H.grib2 2026-05-04 16:14 721K
20260504T12Z_MSC_GDPS_GeopotentialHeight_IsbL-0875_LatLon0.15_PT033H.grib2 2026-05-04 16:14 724K
20260504T12Z_MSC_GDPS_GeopotentialHeight_IsbL-0900_LatLon0.15_PT033H.grib2 2026-05-04 16:14 730K
20260504T12Z_MSC_GDPS_GeopotentialHeight_IsbL-0925_LatLon0.15_PT033H.grib2 2026-05-04 16:14 736K
20260504T12Z_MSC_GDPS_GeopotentialHeight_IsbL-0950_LatLon0.15_PT033H.grib2 2026-05-04 16:14 740K
20260504T12Z_MSC_GDPS_GeopotentialHeight_IsbL-0970_LatLon0.15_PT033H.grib2 2026-05-04 16:14 752K
20260504T12Z_MSC_GDPS_GeopotentialHeight_IsbL-0985_LatLon0.15_PT033H.grib2 2026-05-04 16:14 767K
20260504T12Z_MSC_GDPS_GeopotentialHeight_IsbL-1000_LatLon0.15_PT033H.grib2 2026-05-04 16:14 787K
20260504T12Z_MSC_GDPS_GeopotentialHeight_IsbL-1015_LatLon0.15_PT033H.grib2 2026-05-04 16:14 810K
20260504T12Z_MSC_GDPS_Humidex_Sfc_LatLon0.15_PT033H.grib2 2026-05-04 16:14 5.3M
20260504T12Z_MSC_GDPS_IcePellets-Accum1h_Sfc_LatLon0.15_PT033H.grib2 2026-05-04 16:14 17K
20260504T12Z_MSC_GDPS_IcePellets-Accum3h_Sfc_LatLon0.15_PT033H.grib2 2026-05-04 16:14 22K
20260504T12Z_MSC_GDPS_IcePellets-Accum_Sfc_LatLon0.15_PT033H.grib2 2026-05-04 16:14 59K
20260504T12Z_MSC_GDPS_KIndex_Sfc_LatLon0.15_PT033H.grib2 2026-05-04 16:14 6.5M
20260504T12Z_MSC_GDPS_LatentHeatNetFlux_Sfc_LatLon0.15_PT033H.grib2 2026-05-04 16:14 678K
20260504T12Z_MSC_GDPS_LiftedIndex-MU-VT_IsbL-0500_LatLon0.15_PT033H.grib2 2026-05-04 16:14 5.4M
20260504T12Z_MSC_GDPS_NetLongwaveRadiationFlux-Accum_Sfc_LatLon0.15_PT033H.grib2 2026-05-04 16:14 1.0M
20260504T12Z_MSC_GDPS_NetShortwaveRadiationFlux-Accum_Sfc_LatLon0.15_PT033H.grib2 2026-05-04 16:14 896K
20260504T12Z_MSC_GDPS_O3MixingRatio_Sfc_LatLon0.15_PT033H.grib2 2026-05-04 17:17 2.0M
20260504T12Z_MSC_GDPS_O3_EAtm_LatLon0.15_PT033H.grib2 2026-05-04 17:17 2.5M
20260504T12Z_MSC_GDPS_PlanetaryBoundaryLayerHeight_Sfc_LatLon0.15_PT033H.grib2 2026-05-04 16:14 2.4M
20260504T12Z_MSC_GDPS_Precip-Accum1h_Sfc_LatLon0.15_PT033H.grib2 2026-05-04 16:14 3.2M
20260504T12Z_MSC_GDPS_Precip-Accum3h_Sfc_LatLon0.15_PT033H.grib2 2026-05-04 16:14 3.5M
20260504T12Z_MSC_GDPS_Precip-Accum_Sfc_LatLon0.15_PT033H.grib2 2026-05-04 16:14 4.6M
20260504T12Z_MSC_GDPS_PrecipRate_Sfc_LatLon0.15_PT033H.grib2 2026-05-04 16:14 3.1M
20260504T12Z_MSC_GDPS_PrecipType-Instant_Sfc_LatLon0.15_PT033H.grib2 2026-05-04 16:14 1.6M
20260504T12Z_MSC_GDPS_Pressure_MSL_LatLon0.15_PT033H.grib2 2026-05-04 16:14 724K
20260504T12Z_MSC_GDPS_Pressure_PVU-1.5_LatLon0.15_PT033H.grib2 2026-05-04 16:14 5.8M
20260504T12Z_MSC_GDPS_Pressure_PVU-1_LatLon0.15_PT033H.grib2 2026-05-04 16:14 6.0M
20260504T12Z_MSC_GDPS_Pressure_PVU-2_LatLon0.15_PT033H.grib2 2026-05-04 16:14 5.6M
20260504T12Z_MSC_GDPS_Pressure_Sfc_LatLon0.15_PT033H.grib2 2026-05-04 16:14 1.1M
20260504T12Z_MSC_GDPS_RadiativeTemp_Sfc_LatLon0.15_PT033H.grib2 2026-05-04 16:14 481K
20260504T12Z_MSC_GDPS_Rain-Accum1h_Sfc_LatLon0.15_PT033H.grib2 2026-05-04 16:14 1.7M
20260504T12Z_MSC_GDPS_Rain-Accum3h_Sfc_LatLon0.15_PT033H.grib2 2026-05-04 16:14 1.7M
20260504T12Z_MSC_GDPS_Rain-Accum_Sfc_LatLon0.15_PT033H.grib2 2026-05-04 16:14 3.4M
20260504T12Z_MSC_GDPS_RelativeHumidity_AGL-2m_LatLon0.15_PT033H.grib2 2026-05-04 16:14 1.1M
20260504T12Z_MSC_GDPS_RelativeHumidity_IsbL-0010_LatLon0.15_PT033H.grib2 2026-05-04 16:14 138K
20260504T12Z_MSC_GDPS_RelativeHumidity_IsbL-0020_LatLon0.15_PT033H.grib2 2026-05-04 16:14 178K
20260504T12Z_MSC_GDPS_RelativeHumidity_IsbL-0030_LatLon0.15_PT033H.grib2 2026-05-04 16:14 274K
20260504T12Z_MSC_GDPS_RelativeHumidity_IsbL-0050_LatLon0.15_PT033H.grib2 2026-05-04 16:14 342K
20260504T12Z_MSC_GDPS_RelativeHumidity_IsbL-0100_LatLon0.15_PT033H.grib2 2026-05-04 16:14 519K
20260504T12Z_MSC_GDPS_RelativeHumidity_IsbL-0150_LatLon0.15_PT033H.grib2 2026-05-04 16:14 671K
20260504T12Z_MSC_GDPS_RelativeHumidity_IsbL-0175_LatLon0.15_PT033H.grib2 2026-05-04 16:14 808K
20260504T12Z_MSC_GDPS_RelativeHumidity_IsbL-0200_LatLon0.15_PT033H.grib2 2026-05-04 16:14 717K
20260504T12Z_MSC_GDPS_RelativeHumidity_IsbL-0225_LatLon0.15_PT033H.grib2 2026-05-04 16:14 795K
20260504T12Z_MSC_GDPS_RelativeHumidity_IsbL-0250_LatLon0.15_PT033H.grib2 2026-05-04 16:14 868K
20260504T12Z_MSC_GDPS_RelativeHumidity_IsbL-0275_LatLon0.15_PT033H.grib2 2026-05-04 16:14 892K
20260504T12Z_MSC_GDPS_RelativeHumidity_IsbL-0300_LatLon0.15_PT033H.grib2 2026-05-04 16:14 937K
20260504T12Z_MSC_GDPS_RelativeHumidity_IsbL-0350_LatLon0.15_PT033H.grib2 2026-05-04 16:14 955K
20260504T12Z_MSC_GDPS_RelativeHumidity_IsbL-0400_LatLon0.15_PT033H.grib2 2026-05-04 16:14 1.0M
20260504T12Z_MSC_GDPS_RelativeHumidity_IsbL-0450_LatLon0.15_PT033H.grib2 2026-05-04 16:14 1.0M
20260504T12Z_MSC_GDPS_RelativeHumidity_IsbL-0500_LatLon0.15_PT033H.grib2 2026-05-04 16:14 1.0M
20260504T12Z_MSC_GDPS_RelativeHumidity_IsbL-0550_LatLon0.15_PT033H.grib2 2026-05-04 16:14 1.0M
20260504T12Z_MSC_GDPS_RelativeHumidity_IsbL-0600_LatLon0.15_PT033H.grib2 2026-05-04 16:14 1.1M
20260504T12Z_MSC_GDPS_RelativeHumidity_IsbL-0650_LatLon0.15_PT033H.grib2 2026-05-04 16:14 1.1M
20260504T12Z_MSC_GDPS_RelativeHumidity_IsbL-0700_LatLon0.15_PT033H.grib2 2026-05-04 16:14 1.1M
20260504T12Z_MSC_GDPS_RelativeHumidity_IsbL-0750_LatLon0.15_PT033H.grib2 2026-05-04 16:14 1.2M
20260504T12Z_MSC_GDPS_RelativeHumidity_IsbL-0800_LatLon0.15_PT033H.grib2 2026-05-04 16:14 1.2M
20260504T12Z_MSC_GDPS_RelativeHumidity_IsbL-0850_LatLon0.15_PT033H.grib2 2026-05-04 16:14 1.3M
20260504T12Z_MSC_GDPS_RelativeHumidity_IsbL-0875_LatLon0.15_PT033H.grib2 2026-05-04 16:14 1.3M
20260504T12Z_MSC_GDPS_RelativeHumidity_IsbL-0900_LatLon0.15_PT033H.grib2 2026-05-04 16:14 1.2M
20260504T12Z_MSC_GDPS_RelativeHumidity_IsbL-0925_LatLon0.15_PT033H.grib2 2026-05-04 16:14 1.2M
20260504T12Z_MSC_GDPS_RelativeHumidity_IsbL-0950_LatLon0.15_PT033H.grib2 2026-05-04 16:14 1.2M
20260504T12Z_MSC_GDPS_RelativeHumidity_IsbL-0970_LatLon0.15_PT033H.grib2 2026-05-04 16:14 1.2M
20260504T12Z_MSC_GDPS_RelativeHumidity_IsbL-0985_LatLon0.15_PT033H.grib2 2026-05-04 16:14 1.1M
20260504T12Z_MSC_GDPS_RelativeHumidity_IsbL-1000_LatLon0.15_PT033H.grib2 2026-05-04 16:14 1.2M
20260504T12Z_MSC_GDPS_RelativeHumidity_IsbL-1015_LatLon0.15_PT033H.grib2 2026-05-04 16:14 1.1M
20260504T12Z_MSC_GDPS_RelativeVorticity_IsbL-0200_LatLon0.15_PT033H.grib2 2026-05-04 16:14 1.2M
20260504T12Z_MSC_GDPS_RelativeVorticity_IsbL-0250_LatLon0.15_PT033H.grib2 2026-05-04 16:14 1.3M
20260504T12Z_MSC_GDPS_RelativeVorticity_IsbL-0500_LatLon0.15_PT033H.grib2 2026-05-04 16:14 1.5M
20260504T12Z_MSC_GDPS_RelativeVorticity_IsbL-0700_LatLon0.15_PT033H.grib2 2026-05-04 16:14 1.3M
20260504T12Z_MSC_GDPS_RelativeVorticity_IsbL-0850_LatLon0.15_PT033H.grib2 2026-05-04 16:14 1.6M
20260504T12Z_MSC_GDPS_Runoff-Accum_Sfc_LatLon0.15_PT033H.grib2 2026-05-04 16:14 100K
20260504T12Z_MSC_GDPS_SensibleHeatNetFlux_Sfc_LatLon0.15_PT033H.grib2 2026-05-04 16:14 458K
20260504T12Z_MSC_GDPS_ShowalterIndex_IsbL-0500_LatLon0.15_PT033H.grib2 2026-05-04 16:14 6.2M
20260504T12Z_MSC_GDPS_Snow-Accum1h_Sfc_LatLon0.15_PT033H.grib2 2026-05-04 16:14 1.0M
20260504T12Z_MSC_GDPS_Snow-Accum3h_Sfc_LatLon0.15_PT033H.grib2 2026-05-04 16:14 919K
20260504T12Z_MSC_GDPS_Snow-Accum_Sfc_LatLon0.15_PT033H.grib2 2026-05-04 16:14 1.9M
20260504T12Z_MSC_GDPS_SnowDensity_Sfc_LatLon0.15_PT033H.grib2 2026-05-04 16:14 254K
20260504T12Z_MSC_GDPS_SnowDepth_Sfc_LatLon0.15_PT033H.grib2 2026-05-04 16:14 1.7M
20260504T12Z_MSC_GDPS_SoilTemp_DBS-0to10cm_LatLon0.15_PT033H.grib2 2026-05-04 16:14 503K
20260504T12Z_MSC_GDPS_SoilTemp_Sfc_LatLon0.15_PT033H.grib2 2026-05-04 16:14 575K
20260504T12Z_MSC_GDPS_SoilVolumetricIceContent_Sfc_LatLon0.15_PT033H.grib2 2026-05-04 16:14 191K
20260504T12Z_MSC_GDPS_SoilVolumetricWaterContent_DBS-0to10cm_LatLon0.15_PT033H.grib2 2026-05-04 16:14 591K
20260504T12Z_MSC_GDPS_SoilVolumetricWaterContent_DBS-0to1cm_LatLon0.15_PT033H.grib2 2026-05-04 16:14 652K
20260504T12Z_MSC_GDPS_SpecificHumidity_AGL-120m_LatLon0.15_PT033H.grib2 2026-05-04 16:14 1.1M
20260504T12Z_MSC_GDPS_SpecificHumidity_AGL-2m_LatLon0.15_PT033H.grib2 2026-05-04 16:14 1.2M
20260504T12Z_MSC_GDPS_SpecificHumidity_AGL-40m_LatLon0.15_PT033H.grib2 2026-05-04 16:14 1.1M
20260504T12Z_MSC_GDPS_SpecificHumidity_AGL-80m_LatLon0.15_PT033H.grib2 2026-05-04 16:14 1.1M
20260504T12Z_MSC_GDPS_SpecificHumidity_IsbL-0001_LatLon0.15_PT033H.grib2 2026-05-04 16:14 1.4M
20260504T12Z_MSC_GDPS_SpecificHumidity_IsbL-0005_LatLon0.15_PT033H.grib2 2026-05-04 16:14 1.3M
20260504T12Z_MSC_GDPS_SpecificHumidity_IsbL-0010_LatLon0.15_PT033H.grib2 2026-05-04 16:14 1.4M
20260504T12Z_MSC_GDPS_SpecificHumidity_IsbL-0020_LatLon0.15_PT033H.grib2 2026-05-04 16:14 1.4M
20260504T12Z_MSC_GDPS_SpecificHumidity_IsbL-0030_LatLon0.15_PT033H.grib2 2026-05-04 16:14 1.4M
20260504T12Z_MSC_GDPS_SpecificHumidity_IsbL-0050_LatLon0.15_PT033H.grib2 2026-05-04 16:14 1.4M
20260504T12Z_MSC_GDPS_SpecificHumidity_IsbL-0100_LatLon0.15_PT033H.grib2 2026-05-04 16:14 1.4M
20260504T12Z_MSC_GDPS_SpecificHumidity_IsbL-0150_LatLon0.15_PT033H.grib2 2026-05-04 16:14 1.3M
20260504T12Z_MSC_GDPS_SpecificHumidity_IsbL-0175_LatLon0.15_PT033H.grib2 2026-05-04 16:14 1.3M
20260504T12Z_MSC_GDPS_SpecificHumidity_IsbL-0200_LatLon0.15_PT033H.grib2 2026-05-04 16:14 1.3M
20260504T12Z_MSC_GDPS_SpecificHumidity_IsbL-0225_LatLon0.15_PT033H.grib2 2026-05-04 16:14 1.3M
20260504T12Z_MSC_GDPS_SpecificHumidity_IsbL-0250_LatLon0.15_PT033H.grib2 2026-05-04 16:14 1.4M
20260504T12Z_MSC_GDPS_SpecificHumidity_IsbL-0275_LatLon0.15_PT033H.grib2 2026-05-04 16:14 1.3M
20260504T12Z_MSC_GDPS_SpecificHumidity_IsbL-0300_LatLon0.15_PT033H.grib2 2026-05-04 16:14 1.2M
20260504T12Z_MSC_GDPS_SpecificHumidity_IsbL-0350_LatLon0.15_PT033H.grib2 2026-05-04 16:14 1.2M
20260504T12Z_MSC_GDPS_SpecificHumidity_IsbL-0400_LatLon0.15_PT033H.grib2 2026-05-04 16:14 1.5M
20260504T12Z_MSC_GDPS_SpecificHumidity_IsbL-0450_LatLon0.15_PT033H.grib2 2026-05-04 16:14 1.6M
20260504T12Z_MSC_GDPS_SpecificHumidity_IsbL-0500_LatLon0.15_PT033H.grib2 2026-05-04 16:14 1.4M
20260504T12Z_MSC_GDPS_SpecificHumidity_IsbL-0550_LatLon0.15_PT033H.grib2 2026-05-04 16:14 1.6M
20260504T12Z_MSC_GDPS_SpecificHumidity_IsbL-0600_LatLon0.15_PT033H.grib2 2026-05-04 16:14 1.4M
20260504T12Z_MSC_GDPS_SpecificHumidity_IsbL-0650_LatLon0.15_PT033H.grib2 2026-05-04 16:14 1.5M
20260504T12Z_MSC_GDPS_SpecificHumidity_IsbL-0700_LatLon0.15_PT033H.grib2 2026-05-04 16:14 1.6M
20260504T12Z_MSC_GDPS_SpecificHumidity_IsbL-0750_LatLon0.15_PT033H.grib2 2026-05-04 16:14 1.7M
20260504T12Z_MSC_GDPS_SpecificHumidity_IsbL-0800_LatLon0.15_PT033H.grib2 2026-05-04 16:14 1.8M
20260504T12Z_MSC_GDPS_SpecificHumidity_IsbL-0850_LatLon0.15_PT033H.grib2 2026-05-04 16:14 1.9M
20260504T12Z_MSC_GDPS_SpecificHumidity_IsbL-0875_LatLon0.15_PT033H.grib2 2026-05-04 16:14 1.9M
20260504T12Z_MSC_GDPS_SpecificHumidity_IsbL-0900_LatLon0.15_PT033H.grib2 2026-05-04 16:14 1.9M
20260504T12Z_MSC_GDPS_SpecificHumidity_IsbL-0925_LatLon0.15_PT033H.grib2 2026-05-04 16:14 1.6M
20260504T12Z_MSC_GDPS_SpecificHumidity_IsbL-0950_LatLon0.15_PT033H.grib2 2026-05-04 16:14 1.5M
20260504T12Z_MSC_GDPS_SpecificHumidity_IsbL-0970_LatLon0.15_PT033H.grib2 2026-05-04 16:14 1.5M
20260504T12Z_MSC_GDPS_SpecificHumidity_IsbL-0985_LatLon0.15_PT033H.grib2 2026-05-04 16:14 1.5M
20260504T12Z_MSC_GDPS_SpecificHumidity_IsbL-1000_LatLon0.15_PT033H.grib2 2026-05-04 16:14 1.5M
20260504T12Z_MSC_GDPS_SpecificHumidity_IsbL-1015_LatLon0.15_PT033H.grib2 2026-05-04 16:14 1.4M
20260504T12Z_MSC_GDPS_SpecificHumidity_Sfc_LatLon0.15_PT033H.grib2 2026-05-04 16:14 631K
20260504T12Z_MSC_GDPS_Thickness_IsbL-0850to0700_LatLon0.15_PT033H.grib2 2026-05-04 16:14 470K
20260504T12Z_MSC_GDPS_Thickness_IsbL-1000to0500_LatLon0.15_PT033H.grib2 2026-05-04 16:14 375K
20260504T12Z_MSC_GDPS_Thickness_IsbL-1000to0850_LatLon0.15_PT033H.grib2 2026-05-04 16:14 487K
20260504T12Z_MSC_GDPS_TotalCloudCover_Sfc_LatLon0.15_PT033H.grib2 2026-05-04 16:14 818K
20260504T12Z_MSC_GDPS_TotalTotalsIndex_Sfc_LatLon0.15_PT033H.grib2 2026-05-04 16:14 6.2M
20260504T12Z_MSC_GDPS_UVIndex-ClearSky_Sfc_LatLon0.15_PT033H.grib2 2026-05-04 17:17 1.0M
20260504T12Z_MSC_GDPS_UVIndex_Sfc_LatLon0.15_PT033H.grib2 2026-05-04 17:17 1.5M
20260504T12Z_MSC_GDPS_UpwardLongwaveRadiationFlux_NTAtm_LatLon0.15_PT033H.grib2 2026-05-04 16:14 831K
20260504T12Z_MSC_GDPS_VerticalVelocity_IsbL-0200_LatLon0.15_PT033H.grib2 2026-05-04 16:14 959K
20260504T12Z_MSC_GDPS_VerticalVelocity_IsbL-0250_LatLon0.15_PT033H.grib2 2026-05-04 16:14 1.1M
20260504T12Z_MSC_GDPS_VerticalVelocity_IsbL-0500_LatLon0.15_PT033H.grib2 2026-05-04 16:14 1.3M
20260504T12Z_MSC_GDPS_VerticalVelocity_IsbL-0600_LatLon0.15_PT033H.grib2 2026-05-04 16:14 1.4M
20260504T12Z_MSC_GDPS_VerticalVelocity_IsbL-0700_LatLon0.15_PT033H.grib2 2026-05-04 16:14 1.1M
20260504T12Z_MSC_GDPS_VerticalVelocity_IsbL-0850_LatLon0.15_PT033H.grib2 2026-05-04 16:14 1.3M
20260504T12Z_MSC_GDPS_WindChill_Sfc_LatLon0.15_PT033H.grib2 2026-05-04 16:14 5.3M
20260504T12Z_MSC_GDPS_WindDir_AGL-10m_LatLon0.15_PT033H.grib2 2026-05-04 16:14 1.3M
20260504T12Z_MSC_GDPS_WindDir_AGL-120m_LatLon0.15_PT033H.grib2 2026-05-04 16:14 1.3M
20260504T12Z_MSC_GDPS_WindDir_AGL-40m_LatLon0.15_PT033H.grib2 2026-05-04 16:14 1.4M
20260504T12Z_MSC_GDPS_WindDir_AGL-80m_LatLon0.15_PT033H.grib2 2026-05-04 16:14 1.3M
20260504T12Z_MSC_GDPS_WindDir_IsbL-0001_LatLon0.15_PT033H.grib2 2026-05-04 16:14 692K
20260504T12Z_MSC_GDPS_WindDir_IsbL-0005_LatLon0.15_PT033H.grib2 2026-05-04 16:14 823K
20260504T12Z_MSC_GDPS_WindDir_IsbL-0010_LatLon0.15_PT033H.grib2 2026-05-04 16:14 838K
20260504T12Z_MSC_GDPS_WindDir_IsbL-0020_LatLon0.15_PT033H.grib2 2026-05-04 16:14 944K
20260504T12Z_MSC_GDPS_WindDir_IsbL-0030_LatLon0.15_PT033H.grib2 2026-05-04 16:14 945K
20260504T12Z_MSC_GDPS_WindDir_IsbL-0050_LatLon0.15_PT033H.grib2 2026-05-04 16:14 958K
20260504T12Z_MSC_GDPS_WindDir_IsbL-0100_LatLon0.15_PT033H.grib2 2026-05-04 16:14 1.0M
20260504T12Z_MSC_GDPS_WindDir_IsbL-0150_LatLon0.15_PT033H.grib2 2026-05-04 16:14 1.0M
20260504T12Z_MSC_GDPS_WindDir_IsbL-0175_LatLon0.15_PT033H.grib2 2026-05-04 16:14 1.1M
20260504T12Z_MSC_GDPS_WindDir_IsbL-0200_LatLon0.15_PT033H.grib2 2026-05-04 16:14 1.1M
20260504T12Z_MSC_GDPS_WindDir_IsbL-0225_LatLon0.15_PT033H.grib2 2026-05-04 16:14 1.1M
20260504T12Z_MSC_GDPS_WindDir_IsbL-0250_LatLon0.15_PT033H.grib2 2026-05-04 16:14 1.1M
20260504T12Z_MSC_GDPS_WindDir_IsbL-0275_LatLon0.15_PT033H.grib2 2026-05-04 16:14 1.2M
20260504T12Z_MSC_GDPS_WindDir_IsbL-0300_LatLon0.15_PT033H.grib2 2026-05-04 16:14 1.2M
20260504T12Z_MSC_GDPS_WindDir_IsbL-0350_LatLon0.15_PT033H.grib2 2026-05-04 16:14 1.3M
20260504T12Z_MSC_GDPS_WindDir_IsbL-0400_LatLon0.15_PT033H.grib2 2026-05-04 16:14 1.3M
20260504T12Z_MSC_GDPS_WindDir_IsbL-0450_LatLon0.15_PT033H.grib2 2026-05-04 16:14 1.3M
20260504T12Z_MSC_GDPS_WindDir_IsbL-0500_LatLon0.15_PT033H.grib2 2026-05-04 16:14 1.3M
20260504T12Z_MSC_GDPS_WindDir_IsbL-0550_LatLon0.15_PT033H.grib2 2026-05-04 16:14 1.4M
20260504T12Z_MSC_GDPS_WindDir_IsbL-0600_LatLon0.15_PT033H.grib2 2026-05-04 16:14 1.4M
20260504T12Z_MSC_GDPS_WindDir_IsbL-0650_LatLon0.15_PT033H.grib2 2026-05-04 16:14 1.5M
20260504T12Z_MSC_GDPS_WindDir_IsbL-0700_LatLon0.15_PT033H.grib2 2026-05-04 16:14 1.6M
20260504T12Z_MSC_GDPS_WindDir_IsbL-0750_LatLon0.15_PT033H.grib2 2026-05-04 16:14 1.7M
20260504T12Z_MSC_GDPS_WindDir_IsbL-0800_LatLon0.15_PT033H.grib2 2026-05-04 16:14 1.8M
20260504T12Z_MSC_GDPS_WindDir_IsbL-0850_LatLon0.15_PT033H.grib2 2026-05-04 16:14 1.9M
20260504T12Z_MSC_GDPS_WindDir_IsbL-0875_LatLon0.15_PT033H.grib2 2026-05-04 16:14 1.9M
20260504T12Z_MSC_GDPS_WindDir_IsbL-0900_LatLon0.15_PT033H.grib2 2026-05-04 16:14 1.9M
20260504T12Z_MSC_GDPS_WindDir_IsbL-0925_LatLon0.15_PT033H.grib2 2026-05-04 16:14 1.9M
20260504T12Z_MSC_GDPS_WindDir_IsbL-0950_LatLon0.15_PT033H.grib2 2026-05-04 16:14 1.9M
20260504T12Z_MSC_GDPS_WindDir_IsbL-0970_LatLon0.15_PT033H.grib2 2026-05-04 16:14 2.0M
20260504T12Z_MSC_GDPS_WindDir_IsbL-0985_LatLon0.15_PT033H.grib2 2026-05-04 16:14 2.0M
20260504T12Z_MSC_GDPS_WindDir_IsbL-1000_LatLon0.15_PT033H.grib2 2026-05-04 16:14 2.0M
20260504T12Z_MSC_GDPS_WindDir_IsbL-1015_LatLon0.15_PT033H.grib2 2026-05-04 16:14 2.0M
20260504T12Z_MSC_GDPS_WindGust-Max_AGL-10m_LatLon0.15_PT033H.grib2 2026-05-04 16:14 2.2M
20260504T12Z_MSC_GDPS_WindGust-Min_AGL-10m_LatLon0.15_PT033H.grib2 2026-05-04 16:14 2.2M
20260504T12Z_MSC_GDPS_WindGust_AGL-10m_LatLon0.15_PT033H.grib2 2026-05-04 16:14 2.2M
20260504T12Z_MSC_GDPS_WindSpeed_AGL-10m_LatLon0.15_PT033H.grib2 2026-05-04 16:14 1.1M
20260504T12Z_MSC_GDPS_WindSpeed_AGL-120m_LatLon0.15_PT033H.grib2 2026-05-04 16:14 1.2M
20260504T12Z_MSC_GDPS_WindSpeed_AGL-40m_LatLon0.15_PT033H.grib2 2026-05-04 16:14 1.2M
20260504T12Z_MSC_GDPS_WindSpeed_AGL-80m_LatLon0.15_PT033H.grib2 2026-05-04 16:14 1.2M
20260504T12Z_MSC_GDPS_WindSpeed_IsbL-0001_LatLon0.15_PT033H.grib2 2026-05-04 16:14 503K
20260504T12Z_MSC_GDPS_WindSpeed_IsbL-0005_LatLon0.15_PT033H.grib2 2026-05-04 16:14 699K
20260504T12Z_MSC_GDPS_WindSpeed_IsbL-0010_LatLon0.15_PT033H.grib2 2026-05-04 16:14 636K
20260504T12Z_MSC_GDPS_WindSpeed_IsbL-0020_LatLon0.15_PT033H.grib2 2026-05-04 16:14 865K
20260504T12Z_MSC_GDPS_WindSpeed_IsbL-0030_LatLon0.15_PT033H.grib2 2026-05-04 16:14 878K
20260504T12Z_MSC_GDPS_WindSpeed_IsbL-0050_LatLon0.15_PT033H.grib2 2026-05-04 16:14 916K
20260504T12Z_MSC_GDPS_WindSpeed_IsbL-0100_LatLon0.15_PT033H.grib2 2026-05-04 16:14 1.1M
20260504T12Z_MSC_GDPS_WindSpeed_IsbL-0150_LatLon0.15_PT033H.grib2 2026-05-04 16:14 952K
20260504T12Z_MSC_GDPS_WindSpeed_IsbL-0175_LatLon0.15_PT033H.grib2 2026-05-04 16:14 1.0M
20260504T12Z_MSC_GDPS_WindSpeed_IsbL-0200_LatLon0.15_PT033H.grib2 2026-05-04 16:14 1.1M
20260504T12Z_MSC_GDPS_WindSpeed_IsbL-0225_LatLon0.15_PT033H.grib2 2026-05-04 16:14 1.1M
20260504T12Z_MSC_GDPS_WindSpeed_IsbL-0250_LatLon0.15_PT033H.grib2 2026-05-04 16:14 1.1M
20260504T12Z_MSC_GDPS_WindSpeed_IsbL-0275_LatLon0.15_PT033H.grib2 2026-05-04 16:14 1.1M
20260504T12Z_MSC_GDPS_WindSpeed_IsbL-0300_LatLon0.15_PT033H.grib2 2026-05-04 16:14 1.1M
20260504T12Z_MSC_GDPS_WindSpeed_IsbL-0350_LatLon0.15_PT033H.grib2 2026-05-04 16:14 1.1M
20260504T12Z_MSC_GDPS_WindSpeed_IsbL-0400_LatLon0.15_PT033H.grib2 2026-05-04 16:14 1.1M
20260504T12Z_MSC_GDPS_WindSpeed_IsbL-0450_LatLon0.15_PT033H.grib2 2026-05-04 16:14 1.1M
20260504T12Z_MSC_GDPS_WindSpeed_IsbL-0500_LatLon0.15_PT033H.grib2 2026-05-04 16:14 1.1M
20260504T12Z_MSC_GDPS_WindSpeed_IsbL-0550_LatLon0.15_PT033H.grib2 2026-05-04 16:14 1.1M
20260504T12Z_MSC_GDPS_WindSpeed_IsbL-0600_LatLon0.15_PT033H.grib2 2026-05-04 16:14 1.1M
20260504T12Z_MSC_GDPS_WindSpeed_IsbL-0650_LatLon0.15_PT033H.grib2 2026-05-04 16:14 1.5M
20260504T12Z_MSC_GDPS_WindSpeed_IsbL-0700_LatLon0.15_PT033H.grib2 2026-05-04 16:14 1.5M
20260504T12Z_MSC_GDPS_WindSpeed_IsbL-0750_LatLon0.15_PT033H.grib2 2026-05-04 16:14 1.6M
20260504T12Z_MSC_GDPS_WindSpeed_IsbL-0800_LatLon0.15_PT033H.grib2 2026-05-04 16:14 1.6M
20260504T12Z_MSC_GDPS_WindSpeed_IsbL-0850_LatLon0.15_PT033H.grib2 2026-05-04 16:14 1.8M
20260504T12Z_MSC_GDPS_WindSpeed_IsbL-0875_LatLon0.15_PT033H.grib2 2026-05-04 16:14 1.8M
20260504T12Z_MSC_GDPS_WindSpeed_IsbL-0900_LatLon0.15_PT033H.grib2 2026-05-04 16:14 1.8M
20260504T12Z_MSC_GDPS_WindSpeed_IsbL-0925_LatLon0.15_PT033H.grib2 2026-05-04 16:14 1.8M
20260504T12Z_MSC_GDPS_WindSpeed_IsbL-0950_LatLon0.15_PT033H.grib2 2026-05-04 16:14 1.8M
20260504T12Z_MSC_GDPS_WindSpeed_IsbL-0970_LatLon0.15_PT033H.grib2 2026-05-04 16:14 1.9M
20260504T12Z_MSC_GDPS_WindSpeed_IsbL-0985_LatLon0.15_PT033H.grib2 2026-05-04 16:14 1.9M
20260504T12Z_MSC_GDPS_WindSpeed_IsbL-1000_LatLon0.15_PT033H.grib2 2026-05-04 16:14 1.9M
20260504T12Z_MSC_GDPS_WindSpeed_IsbL-1015_LatLon0.15_PT033H.grib2 2026-05-04 16:14 1.8M
20260504T12Z_MSC_GDPS_WindU_AGL-10m_LatLon0.15_PT033H.grib2 2026-05-04 16:14 1.3M
20260504T12Z_MSC_GDPS_WindU_AGL-120m_LatLon0.15_PT033H.grib2 2026-05-04 16:14 1.0M
20260504T12Z_MSC_GDPS_WindU_AGL-40m_LatLon0.15_PT033H.grib2 2026-05-04 16:14 969K
20260504T12Z_MSC_GDPS_WindU_AGL-80m_LatLon0.15_PT033H.grib2 2026-05-04 16:14 1.0M
20260504T12Z_MSC_GDPS_WindU_IsbL-0001_LatLon0.15_PT033H.grib2 2026-05-04 16:14 505K
20260504T12Z_MSC_GDPS_WindU_IsbL-0005_LatLon0.15_PT033H.grib2 2026-05-04 16:14 697K
20260504T12Z_MSC_GDPS_WindU_IsbL-0010_LatLon0.15_PT033H.grib2 2026-05-04 16:14 709K
20260504T12Z_MSC_GDPS_WindU_IsbL-0020_LatLon0.15_PT033H.grib2 2026-05-04 16:14 738K
20260504T12Z_MSC_GDPS_WindU_IsbL-0030_LatLon0.15_PT033H.grib2 2026-05-04 16:14 752K
20260504T12Z_MSC_GDPS_WindU_IsbL-0050_LatLon0.15_PT033H.grib2 2026-05-04 16:14 777K
20260504T12Z_MSC_GDPS_WindU_IsbL-0100_LatLon0.15_PT033H.grib2 2026-05-04 16:14 929K
20260504T12Z_MSC_GDPS_WindU_IsbL-0150_LatLon0.15_PT033H.grib2 2026-05-04 16:14 1.0M
20260504T12Z_MSC_GDPS_WindU_IsbL-0175_LatLon0.15_PT033H.grib2 2026-05-04 16:14 1.0M
20260504T12Z_MSC_GDPS_WindU_IsbL-0200_LatLon0.15_PT033H.grib2 2026-05-04 16:14 846K
20260504T12Z_MSC_GDPS_WindU_IsbL-0225_LatLon0.15_PT033H.grib2 2026-05-04 16:14 856K
20260504T12Z_MSC_GDPS_WindU_IsbL-0250_LatLon0.15_PT033H.grib2 2026-05-04 16:14 859K
20260504T12Z_MSC_GDPS_WindU_IsbL-0275_LatLon0.15_PT033H.grib2 2026-05-04 16:14 885K
20260504T12Z_MSC_GDPS_WindU_IsbL-0300_LatLon0.15_PT033H.grib2 2026-05-04 16:14 877K
20260504T12Z_MSC_GDPS_WindU_IsbL-0350_LatLon0.15_PT033H.grib2 2026-05-04 16:14 894K
20260504T12Z_MSC_GDPS_WindU_IsbL-0400_LatLon0.15_PT033H.grib2 2026-05-04 16:14 897K
20260504T12Z_MSC_GDPS_WindU_IsbL-0450_LatLon0.15_PT033H.grib2 2026-05-04 16:14 900K
20260504T12Z_MSC_GDPS_WindU_IsbL-0500_LatLon0.15_PT033H.grib2 2026-05-04 16:14 1.1M
20260504T12Z_MSC_GDPS_WindU_IsbL-0550_LatLon0.15_PT033H.grib2 2026-05-04 16:14 1.1M
20260504T12Z_MSC_GDPS_WindU_IsbL-0600_LatLon0.15_PT033H.grib2 2026-05-04 16:14 1.2M
20260504T12Z_MSC_GDPS_WindU_IsbL-0650_LatLon0.15_PT033H.grib2 2026-05-04 16:14 1.2M
20260504T12Z_MSC_GDPS_WindU_IsbL-0700_LatLon0.15_PT033H.grib2 2026-05-04 16:14 1.2M
20260504T12Z_MSC_GDPS_WindU_IsbL-0750_LatLon0.15_PT033H.grib2 2026-05-04 16:14 1.3M
20260504T12Z_MSC_GDPS_WindU_IsbL-0800_LatLon0.15_PT033H.grib2 2026-05-04 16:14 1.4M
20260504T12Z_MSC_GDPS_WindU_IsbL-0850_LatLon0.15_PT033H.grib2 2026-05-04 16:14 1.4M
20260504T12Z_MSC_GDPS_WindU_IsbL-0875_LatLon0.15_PT033H.grib2 2026-05-04 16:14 1.5M
20260504T12Z_MSC_GDPS_WindU_IsbL-0900_LatLon0.15_PT033H.grib2 2026-05-04 16:14 1.5M
20260504T12Z_MSC_GDPS_WindU_IsbL-0925_LatLon0.15_PT033H.grib2 2026-05-04 16:14 1.5M
20260504T12Z_MSC_GDPS_WindU_IsbL-0950_LatLon0.15_PT033H.grib2 2026-05-04 16:14 1.4M
20260504T12Z_MSC_GDPS_WindU_IsbL-0970_LatLon0.15_PT033H.grib2 2026-05-04 16:14 1.4M
20260504T12Z_MSC_GDPS_WindU_IsbL-0985_LatLon0.15_PT033H.grib2 2026-05-04 16:14 1.4M
20260504T12Z_MSC_GDPS_WindU_IsbL-1000_LatLon0.15_PT033H.grib2 2026-05-04 16:14 1.4M
20260504T12Z_MSC_GDPS_WindU_IsbL-1015_LatLon0.15_PT033H.grib2 2026-05-04 16:14 1.3M
20260504T12Z_MSC_GDPS_WindV_AGL-10m_LatLon0.15_PT033H.grib2 2026-05-04 16:14 1.6M
20260504T12Z_MSC_GDPS_WindV_AGL-120m_LatLon0.15_PT033H.grib2 2026-05-04 16:14 1.0M
20260504T12Z_MSC_GDPS_WindV_AGL-40m_LatLon0.15_PT033H.grib2 2026-05-04 16:14 969K
20260504T12Z_MSC_GDPS_WindV_AGL-80m_LatLon0.15_PT033H.grib2 2026-05-04 16:14 1.0M
20260504T12Z_MSC_GDPS_WindV_IsbL-0001_LatLon0.15_PT033H.grib2 2026-05-04 16:14 785K
20260504T12Z_MSC_GDPS_WindV_IsbL-0005_LatLon0.15_PT033H.grib2 2026-05-04 16:14 771K
20260504T12Z_MSC_GDPS_WindV_IsbL-0010_LatLon0.15_PT033H.grib2 2026-05-04 16:14 891K
20260504T12Z_MSC_GDPS_WindV_IsbL-0020_LatLon0.15_PT033H.grib2 2026-05-04 16:14 939K
20260504T12Z_MSC_GDPS_WindV_IsbL-0030_LatLon0.15_PT033H.grib2 2026-05-04 16:14 945K
20260504T12Z_MSC_GDPS_WindV_IsbL-0050_LatLon0.15_PT033H.grib2 2026-05-04 16:14 1.0M
20260504T12Z_MSC_GDPS_WindV_IsbL-0100_LatLon0.15_PT033H.grib2 2026-05-04 16:14 857K
20260504T12Z_MSC_GDPS_WindV_IsbL-0150_LatLon0.15_PT033H.grib2 2026-05-04 16:14 1.0M
20260504T12Z_MSC_GDPS_WindV_IsbL-0175_LatLon0.15_PT033H.grib2 2026-05-04 16:14 1.0M
20260504T12Z_MSC_GDPS_WindV_IsbL-0200_LatLon0.15_PT033H.grib2 2026-05-04 16:14 844K
20260504T12Z_MSC_GDPS_WindV_IsbL-0225_LatLon0.15_PT033H.grib2 2026-05-04 16:14 912K
20260504T12Z_MSC_GDPS_WindV_IsbL-0250_LatLon0.15_PT033H.grib2 2026-05-04 16:14 912K
20260504T12Z_MSC_GDPS_WindV_IsbL-0275_LatLon0.15_PT033H.grib2 2026-05-04 16:14 936K
20260504T12Z_MSC_GDPS_WindV_IsbL-0300_LatLon0.15_PT033H.grib2 2026-05-04 16:14 930K
20260504T12Z_MSC_GDPS_WindV_IsbL-0350_LatLon0.15_PT033H.grib2 2026-05-04 16:14 887K
20260504T12Z_MSC_GDPS_WindV_IsbL-0400_LatLon0.15_PT033H.grib2 2026-05-04 16:14 888K
20260504T12Z_MSC_GDPS_WindV_IsbL-0450_LatLon0.15_PT033H.grib2 2026-05-04 16:14 891K
20260504T12Z_MSC_GDPS_WindV_IsbL-0500_LatLon0.15_PT033H.grib2 2026-05-04 16:14 1.1M
20260504T12Z_MSC_GDPS_WindV_IsbL-0550_LatLon0.15_PT033H.grib2 2026-05-04 16:14 1.1M
20260504T12Z_MSC_GDPS_WindV_IsbL-0600_LatLon0.15_PT033H.grib2 2026-05-04 16:14 1.1M
20260504T12Z_MSC_GDPS_WindV_IsbL-0650_LatLon0.15_PT033H.grib2 2026-05-04 16:14 1.2M
20260504T12Z_MSC_GDPS_WindV_IsbL-0700_LatLon0.15_PT033H.grib2 2026-05-04 16:14 1.2M
20260504T12Z_MSC_GDPS_WindV_IsbL-0750_LatLon0.15_PT033H.grib2 2026-05-04 16:14 1.2M
20260504T12Z_MSC_GDPS_WindV_IsbL-0800_LatLon0.15_PT033H.grib2 2026-05-04 16:14 1.3M
20260504T12Z_MSC_GDPS_WindV_IsbL-0850_LatLon0.15_PT033H.grib2 2026-05-04 16:14 1.4M
20260504T12Z_MSC_GDPS_WindV_IsbL-0875_LatLon0.15_PT033H.grib2 2026-05-04 16:14 1.5M
20260504T12Z_MSC_GDPS_WindV_IsbL-0900_LatLon0.15_PT033H.grib2 2026-05-04 16:14 1.5M
20260504T12Z_MSC_GDPS_WindV_IsbL-0925_LatLon0.15_PT033H.grib2 2026-05-04 16:14 1.5M
20260504T12Z_MSC_GDPS_WindV_IsbL-0950_LatLon0.15_PT033H.grib2 2026-05-04 16:14 1.4M
20260504T12Z_MSC_GDPS_WindV_IsbL-0970_LatLon0.15_PT033H.grib2 2026-05-04 16:14 1.4M
20260504T12Z_MSC_GDPS_WindV_IsbL-0985_LatLon0.15_PT033H.grib2 2026-05-04 16:14 1.4M
20260504T12Z_MSC_GDPS_WindV_IsbL-1000_LatLon0.15_PT033H.grib2 2026-05-04 16:14 1.4M
20260504T12Z_MSC_GDPS_WindV_IsbL-1015_LatLon0.15_PT033H.grib2 2026-05-04 16:14 1.3M